Flag Weather past 2 weeks in Flint, Michigan, U.S.A.

Now
31 °F

Overcast.


Feels Like: 22 °F
Forecast: 22 / 34 °F
Wind: 12 mph from Northwest

Location: Bishop International Airport

Current Time: Nov 27, 2014 at 9:33:53 AM

Latest Report: Nov 27, 2014 at 8:53 AM


Visibility: 9 mi

Pressure: 30.17 "Hg

Humidity: 76%

Dew point: 24 °F

Location of FlintLocation

Historic Weather in Flint — Graph

°F

Flint temperature yesterday

Maximum temperature yesterday: 34 °F (at 12:53 PM)
Minimum temperature yesterday: 30 °F (at 11:53 PM)
Average temperature yesterday: 32 °F

Past Weeks' High & Low Weather Summary

 TemperatureHumidityPressure
High58 °F (Nov 24, 12:53 PM)91% (Nov 21, 7:53 AM)30.49 "Hg (Nov 21, 7:53 AM)
Low5 °F (Nov 21, 7:53 AM)48% (Nov 21, 2:53 PM)29.02 "Hg (Nov 24, 4:00 AM)
Average30 °F72%30.00 "Hg
* Reported Nov 12 7:53 AM — Nov 27 7:53 AM, Flint, Weather by CustomWeather, © 2014

Note: Actual official high and low records may vary slightly from our data, if they occured in-between our weather recording intervals... More about our weather records

Advertising

Flint weather history for previous 24 hours

 ConditionsComfort  
Time TempWeatherWind HumidityBarometerVisibility
7:53 AM
Nov 27
30 °FOvercast.7 mph75%30.16 "Hg10 mi
6:53 AM29 °FOvercast.8 mph79%30.16 "Hg10 mi
5:53 AM29 °FOvercast.5 mph79%30.14 "Hg10 mi
4:53 AM26 °FPassing clouds.5 mph81%30.14 "Hg10 mi
3:53 AM27 °FOvercast.5 mph81%30.14 "Hg10 mi
2:53 AM29 °FOvercast.7 mph79%30.14 "Hg10 mi
1:53 AM30 °FOvercast.7 mph75%30.13 "Hg10 mi
12:53 AM30 °FOvercast.8 mph75%30.14 "Hg10 mi
11:53 PM
Nov 26
30 °FOvercast.7 mph79%30.14 "Hg10 mi
10:53 PM31 °FOvercast.6 mph76%30.14 "Hg10 mi
9:53 PM31 °FOvercast.5 mph73%30.13 "Hg10 mi
8:53 PM31 °FOvercast.6 mph73%30.12 "Hg10 mi
7:53 PM31 °FOvercast.15 mph76%30.12 "Hg10 mi
6:53 PM31 °FMostly cloudy.8 mph76%30.14 "Hg10 mi
5:53 PM32 °FMostly cloudy.6 mph69%30.14 "Hg10 mi
4:53 PM33 °FOvercast.7 mph63%30.15 "Hg10 mi
3:53 PM34 °FMostly cloudy.7 mph61%30.14 "Hg10 mi
2:53 PM34 °FOvercast.No wind59%30.14 "Hg10 mi
1:53 PM34 °FOvercast.3 mph59%30.14 "Hg10 mi
12:53 PM34 °FOvercast.8 mph56%30.14 "Hg10 mi
11:53 AM33 °FOvercast.3 mph58%30.17 "Hg10 mi
10:53 AM32 °FOvercast.5 mph61%30.20 "Hg10 mi
9:53 AM31 °FOvercast.8 mph69%30.21 "Hg10 mi
Weather by CustomWeather, © 2014

See weather overviewHow to use our weather pages